Location: Bonaustraße
(48.4603°N, 11.9280°E)
Time: 19:40:23
(UTC+01:00)

Envisat - Pass Details

Date: 30 January 2021
Orbit: 764 x 766 km, 98.1° (Epoch: 05 March)

Event Time Altitude Azimuth Distance (km) Brightness Sun altitude
Rises 18:46:48 0° 225° (SW) 3,224 7.1 -16.4°
Reaches altitude 10° 18:51:28 10° 265° (W) 2,306 6.8 -17.2°
Maximum altitude 18:52:24 10° 276° (W) 2,275 6.7 -17.3°
Drops below altitude 10° 18:53:21 10° 287° (WNW) 2,309 6.5 -17.5°
Sets 18:58:04 0° 326° (NNW) 3,244 6.6 -18.3°
